TimeEDT,TemperatureF,Dew PointF,Humidity,Sea Level PressureIn,VisibilityMPH,Wind Direction,Wind SpeedMPH,Gust SpeedMPH,PrecipitationIn,Events,Conditions,WindDirDegrees,DateUTC
12:54 AM,73.0,66.0,79,29.80,10.0,South,4.6,-,N/A,,Mostly Cloudy,190,2012-10-19 04:54:00
1:54 AM,71.1,66.0,84,29.80,10.0,Calm,Calm,-,N/A,,Partly Cloudy,0,2012-10-19 05:54:00
2:54 AM,70.0,66.0,87,29.78,10.0,SE,4.6,-,N/A,,Clear,140,2012-10-19 06:54:00
3:54 AM,70.0,66.0,87,29.77,10.0,SSE,3.5,-,N/A,,Clear,150,2012-10-19 07:54:00
4:54 AM,70.0,66.0,87,29.77,9.0,SSE,4.6,-,N/A,,Clear,150,2012-10-19 08:54:00
5:54 AM,70.0,66.0,87,29.77,7.0,South,3.5,-,N/A,,Clear,170,2012-10-19 09:54:00
6:02 AM,69.8,66.2,88,29.77,6.0,South,4.6,-,N/A,,Scattered Clouds,170,2012-10-19 10:02:00
6:18 AM,69.8,66.2,88,29.76,6.0,South,3.5,-,N/A,,Mostly Cloudy,170,2012-10-19 10:18:00
6:30 AM,69.8,66.2,88,29.77,6.0,SSE,4.6,-,N/A,,Mostly Cloudy,160,2012-10-19 10:30:00
6:54 AM,68.0,64.9,90,29.78,3.0,SW,3.5,-,N/A,,Mostly Cloudy,220,2012-10-19 10:54:00
6:59 AM,69.8,64.4,83,29.78,1.8,SSW,3.5,-,N/A,,Overcast,200,2012-10-19 10:59:00
7:17 AM,69.8,66.2,88,29.79,0.5,SSW,5.8,-,N/A,Fog,Fog,200,2012-10-19 11:17:00
7:54 AM,70.0,66.0,87,29.80,0.2,South,3.5,-,N/A,Fog,Fog,190,2012-10-19 11:54:00
8:50 AM,71.6,66.2,83,29.80,2.0,South,5.8,-,N/A,,Overcast,170,2012-10-19 12:50:00
8:54 AM,71.1,66.9,87,29.79,3.0,South,4.6,-,N/A,,Overcast,170,2012-10-19 12:54:00
9:22 AM,71.6,68.0,88,29.80,8.0,SSW,6.9,-,N/A,,Overcast,210,2012-10-19 13:22:00
9:46 AM,71.6,68.0,88,29.80,9.0,SSW,6.9,-,N/A,,Overcast,200,2012-10-19 13:46:00
9:54 AM,72.0,68.0,87,29.80,10.0,South,6.9,-,N/A,,Overcast,180,2012-10-19 13:54:00
10:54 AM,73.0,66.9,81,29.80,10.0,SSW,6.9,-,N/A,,Overcast,210,2012-10-19 14:54:00
11:13 AM,73.4,66.2,78,29.79,10.0,South,6.9,-,N/A,,Overcast,170,2012-10-19 15:13:00
11:54 AM,72.0,66.9,84,29.80,6.0,South,3.5,-,0.05,Rain,Light Rain,170,2012-10-19 15:54:00
12:54 PM,73.9,68.0,82,29.77,10.0,South,8.1,-,0.01,,Scattered Clouds,180,2012-10-19 16:54:00
1:09 PM,73.4,68.0,83,29.76,10.0,South,6.9,-,0.00,Rain,Light Rain,180,2012-10-19 17:09:00
1:54 PM,73.9,66.9,79,29.75,10.0,SSW,11.5,-,0.00,,Overcast,200,2012-10-19 17:54:00
2:33 PM,75.2,66.2,73,29.74,10.0,SSW,12.7,-,N/A,,Overcast,200,2012-10-19 18:33:00
2:54 PM,75.0,66.9,76,29.73,10.0,SSW,9.2,-,N/A,,Overcast,210,2012-10-19 18:54:00
3:06 PM,75.2,66.2,73,29.73,10.0,SSW,6.9,-,N/A,,Overcast,210,2012-10-19 19:06:00
3:54 PM,77.0,66.0,69,29.73,10.0,South,9.2,-,N/A,,Mostly Cloudy,190,2012-10-19 19:54:00
4:54 PM,75.9,66.0,71,29.72,10.0,South,6.9,-,N/A,,Overcast,190,2012-10-19 20:54:00
5:54 PM,75.0,66.9,76,29.71,10.0,SSE,6.9,-,N/A,,Overcast,160,2012-10-19 21:54:00
6:54 PM,73.0,66.9,81,29.71,10.0,South,6.9,-,N/A,,Clear,180,2012-10-19 22:54:00
7:54 PM,72.0,66.0,81,29.72,10.0,South,6.9,-,N/A,,Clear,170,2012-10-19 23:54:00
8:54 PM,71.1,64.9,81,29.73,10.0,South,5.8,-,N/A,,Clear,190,2012-10-20 00:54:00
9:54 PM,71.1,64.9,81,29.75,10.0,SSW,8.1,-,N/A,,Clear,200,2012-10-20 01:54:00
10:54 PM,69.1,63.0,81,29.77,10.0,SW,9.2,-,N/A,,Clear,220,2012-10-20 02:54:00
11:54 PM,64.9,60.1,84,29.78,10.0,SW,6.9,-,N/A,,Clear,220,2012-10-20 03:54:00